Flag Weather past 2 weeks in Fairbanks, Alaska, U.S.A.

Now
-8 °F

Clear.


Feels Like: -19 °F
Forecast: -9 / -4 °F
Wind: 5 mph from East

Location: Wainwright U. S. Army Airfield

Current Time: Nov 27, 2014 at 8:49:16 AM

Latest Report: Nov 27, 2014 at 5:56 AM


Visibility: 10 mi

Pressure: 30.45 "Hg

Humidity: 74%

Dew point: -14 °F

Location of FairbanksLocation

Historic Weather in Fairbanks — Graph

°F

Fairbanks temperature yesterday

Maximum temperature yesterday: 12 °F (at 12:56 AM)
Minimum temperature yesterday: -12 °F (at 10:56 PM)
Average temperature yesterday: -2 °F

Past Weeks' High & Low Weather Summary

 TemperatureHumidityPressure
High28 °F (Nov 12, 1:55 PM)100% (Nov 26, 3:55 PM)30.58 "Hg (Nov 26, 3:55 PM)
Low-12 °F (Nov 26, 10:56 PM)41% (Nov 22, 1:56 PM)29.27 "Hg (Nov 21, 4:55 PM)
Average9 °F79%29.92 "Hg
* Reported Nov 12 5:56 AM — Nov 27 5:56 AM, Fairbanks, Weather by CustomWeather, © 2014

Note: Actual official high and low records may vary slightly from our data, if they occured in-between our weather recording intervals... More about our weather records

Advertising

Fairbanks weather history for previous 24 hours

 ConditionsComfort  
Time TempWeatherWind HumidityBarometerVisibility
5:56 AM
Nov 27
-8 °FClear.5 mph74%30.45 "Hg10 mi
4:56 AM-6 °FClear.3 mph75%30.45 "Hg10 mi
3:56 AM-6 °FClear.No wind78%30.45 "Hg10 mi
2:56 AM-11 °FClear.No wind74%30.47 "Hg10 mi
1:56 AM-2 °FClear.No wind75%30.47 "Hg10 mi
12:56 AM-6 °FClear.3 mph78%30.48 "Hg10 mi
11:56 PM
Nov 26
-11 °FClear.No wind78%30.50 "Hg10 mi
10:56 PM-12 °FClear.5 mph81%30.51 "Hg10 mi
9:56 PMN/AClear.No windN/A30.51 "Hg10 mi
5:55 PM-9 °FIce fog.No wind70%30.55 "Hg6 mi
4:55 PM-6 °FIce fog.No wind84%30.55 "Hg4 mi
3:55 PM-8 °FIce fog.5 mph100%30.55 "Hg2 mi
2:55 PM3 °FLight snow. Ice fog.3 mph85%30.58 "Hg1 mi
1:55 PM7 °FLight snow. Ice fog.No wind85%30.55 "Hg0 mi
12:55 PM3 °FLight snow. Ice fog.No wind85%30.56 "Hg2 mi
11:55 AM1 °FSnow flurries. Mostly cloudy.No wind71%30.56 "Hg10 mi
10:55 AM-4 °FSnow flurries. Mostly cloudy.No wind77%30.56 "Hg25 mi
10:47 AM-2 °FSnow flurries. Partly sunny.No wind71%30.52 "Hg25 mi
9:55 AM-6 °FSnow flurries. Passing clouds.1 mph77%30.55 "Hg85 mi
8:55 AM-8 °FPassing clouds.No wind77%30.54 "Hg85 mi
Weather by CustomWeather, © 2014

See weather overviewHow to use our weather pages